�������l�o���
Date,Time,MP-1(��Sv/h),MP-2(��Sv/h),MP-3(��Sv/h),MP-4(��Sv/h),MP-5(��Sv/h),MP-6(��Sv/h),MP-7(��Sv/h),MP-8(��Sv/h),����,����(m/s),���J
2018/02/03,00:00,0.842,1.403,0.881,1.603,1.123,0.473,0.845,0.822,�k��,5.1,��
2018/02/03,00:10,0.845,1.402,0.882,1.601,1.124,0.473,0.844,0.823,�k��,3.6,��
2018/02/03,00:20,0.845,1.404,0.882,1.601,1.124,0.472,0.845,0.823,�k��,3.6,��
2018/02/03,00:30,0.843,1.404,0.880,1.604,1.121,0.473,0.845,0.822,�k��,3.7,��
2018/02/03,00:40,0.845,1.402,0.882,1.602,1.122,0.473,0.847,0.824,�k��,4.1,��
2018/02/03,00:50,0.843,1.403,0.881,1.604,1.124,0.475,0.844,0.824,�k��,3.3,��
2018/02/03,01:00,0.843,1.403,0.882,1.605,1.124,0.473,0.844,0.824,�k��,3.7,��
2018/02/03,01:10,0.844,1.405,0.882,1.604,1.122,0.473,0.845,0.823,�k��,4.3,��
2018/02/03,01:20,0.845,1.402,0.881,1.603,1.123,0.474,0.845,0.824,�k��,4.1,��
2018/02/03,01:30,0.843,1.401,0.883,1.604,1.122,0.473,0.846,0.821,�k��,4.1,��
2018/02/03,01:40,0.844,1.404,0.881,1.605,1.124,0.472,0.845,0.823,�k��,4.0,��
2018/02/03,01:50,0.845,1.404,0.883,1.605,1.122,0.474,0.845,0.821,�k��,3.4,��
2018/02/03,02:00,0.845,1.403,0.881,1.602,1.125,0.473,0.843,0.822,�k��,3.9,��
2018/02/03,02:10,0.844,1.404,0.881,1.603,1.123,0.471,0.845,0.824,���k��,3.5,��
2018/02/03,02:20,0.843,1.404,0.881,1.606,1.124,0.473,0.845,0.822,���k��,3.6,��
2018/02/03,02:30,0.844,1.404,0.882,1.605,1.124,0.473,0.845,0.824,���k��,3.9,��
2018/02/03,02:40,0.843,1.404,0.880,1.604,1.123,0.472,0.845,0.823,���k��,3.3,��
2018/02/03,02:50,0.844,1.401,0.883,1.604,1.122,0.473,0.845,0.823,���k��,3.0,��
2018/02/03,03:00,0.844,1.405,0.883,1.606,1.125,0.473,0.845,0.823,��,3.0,��
2018/02/03,03:10,0.842,1.403,0.881,1.604,1.124,0.473,0.844,0.822,���k��,2.9,��
2018/02/03,03:20,0.843,1.403,0.880,1.602,1.125,0.473,0.845,0.822,���k��,3.1,��
2018/02/03,03:30,0.845,1.401,0.883,1.603,1.126,0.474,0.845,0.823,�k��,3.2,��
2018/02/03,03:40,0.844,1.403,0.881,1.608,1.120,0.472,0.845,0.824,�k��,3.5,��
2018/02/03,03:50,0.844,1.403,0.882,1.605,1.124,0.473,0.845,0.824,�k��,3.5,��
2018/02/03,04:00,0.843,1.403,0.881,1.605,1.123,0.473,0.844,0.822,�k��,4.3,��
2018/02/03,04:10,0.844,1.404,0.883,1.605,1.122,0.474,0.845,0.823,�k��,4.3,��
2018/02/03,04:20,0.844,1.403,0.883,1.604,1.125,0.472,0.845,0.824,�k��,4.0,��
2018/02/03,04:30,0.845,1.405,0.881,1.604,1.125,0.474,0.845,0.825,�k��,4.2,��
2018/02/03,04:40,0.845,1.401,0.883,1.606,1.124,0.474,0.846,0.823,�k��,4.2,��
2018/02/03,04:50,0.845,1.403,0.879,1.607,1.124,0.474,0.844,0.822,�k��,4.2,��
2018/02/03,05:00,0.845,1.403,0.882,1.607,1.123,0.473,0.845,0.824,�k��,4.0,��
2018/02/03,05:10,0.841,1.402,0.882,1.607,1.123,0.474,0.846,0.821,�k�k��,3.4,��
2018/02/03,05:20,0.844,1.401,0.882,1.606,1.125,0.473,0.843,0.822,�k�k��,3.5,��
2018/02/03,05:30,0.844,1.402,0.882,1.605,1.123,0.474,0.847,0.824,�k�k��,3.3,��
2018/02/03,05:40,0.843,1.402,0.883,1.607,1.122,0.473,0.847,0.824,�k�k��,2.3,��
2018/02/03,05:50,0.843,1.402,0.882,1.605,1.121,0.474,0.845,0.824,�k��,2.8,��
2018/02/03,06:00,0.844,1.405,0.880,1.604,1.124,0.473,0.845,0.821,�k�k��,3.1,��
2018/02/03,06:10,0.846,1.400,0.879,1.605,1.123,0.474,0.844,0.821,�k��,3.1,��
2018/02/03,06:20,0.843,1.401,0.881,1.604,1.124,0.473,0.845,0.824,�k�k��,2.9,��
2018/02/03,06:30,0.846,1.402,0.881,1.606,1.121,0.474,0.844,0.823,�k�k��,3.1,��
2018/02/03,06:40,0.844,1.401,0.881,1.608,1.124,0.472,0.845,0.824,�k�k��,3.2,��
2018/02/03,06:50,0.844,1.401,0.882,1.607,1.124,0.474,0.843,0.824,�k�k��,3.9,��
2018/02/03,07:00,0.843,1.402,0.880,1.607,1.123,0.473,0.847,0.824,�k�k��,3.5,��
2018/02/03,07:10,0.843,1.402,0.882,1.608,1.122,0.474,0.844,0.823,�k�k��,3.6,��
2018/02/03,07:20,0.844,1.403,0.882,1.606,1.123,0.474,0.843,0.825,�k�k��,4.5,��
2018/02/03,07:30,0.844,1.400,0.880,1.604,1.124,0.473,0.845,0.822,�k�k��,4.3,��
2018/02/03,07:40,0.845,1.403,0.882,1.607,1.124,0.473,0.847,0.824,�k�k��,4.2,��
2018/02/03,07:50,0.844,1.400,0.882,1.606,1.123,0.474,0.846,0.822,�k�k��,3.5,��
2018/02/03,08:00,0.844,1.405,0.882,1.607,1.123,0.474,0.846,0.824,�k��,3.7,��
2018/02/03,08:10,0.845,1.401,0.882,1.608,1.123,0.473,0.846,0.824,�k��,3.1,��
2018/02/03,08:20,0.844,1.402,0.880,1.606,1.123,0.474,0.848,0.823,�k��,4.4,��
2018/02/03,08:30,0.843,1.403,0.883,1.606,1.123,0.473,0.847,0.824,�k��,4.1,��
2018/02/03,08:40,0.846,1.402,0.882,1.609,1.124,0.474,0.847,0.823,�k��,4.1,��
2018/02/03,08:50,0.845,1.402,0.881,1.608,1.124,0.473,0.847,0.824,�k��,3.6,��
2018/02/03,09:00,0.846,1.401,0.883,1.605,1.125,0.474,0.848,0.823,���k��,2.8,��
2018/02/03,09:10,0.846,1.402,0.884,1.605,1.123,0.475,0.848,0.824,�k��,3.1,��
2018/02/03,09:20,0.849,1.408,0.885,1.610,1.124,0.475,0.846,0.824,�k��,1.5,��
2018/02/03,09:30,0.849,1.404,0.881,1.604,1.127,0.475,0.847,0.824,�k�k��,2.0,��
2018/02/03,09:40,0.848,1.406,0.884,1.608,1.126,0.475,0.848,0.825,�k�k��,2.3,��
2018/02/03,09:50,0.849,1.406,0.884,1.609,1.124,0.475,0.850,0.824,�k�k��,2.2,��
2018/02/03,10:00,0.849,1.407,0.887,1.608,1.127,0.475,0.847,0.825,�k,1.7,��
2018/02/03,10:10,0.852,1.404,0.887,1.609,1.127,0.477,0.848,0.825,�k�k��,1.5,��
2018/02/03,10:20,0.849,1.401,0.887,1.610,1.128,0.475,0.848,0.825,���k��,1.5,��
2018/02/03,10:30,0.850,1.407,0.886,1.608,1.127,0.477,0.846,0.827,���k��,1.7,��
2018/02/03,10:40,0.850,1.407,0.886,1.608,1.129,0.475,0.846,0.826,�k��,2.5,��
2018/02/03,10:50,0.849,1.403,0.884,1.610,1.127,0.476,0.846,0.825,���k��,2.3,��
2018/02/03,11:00,0.851,1.403,0.885,1.611,1.131,0.475,0.846,0.825,���k��,2.3,��
2018/02/03,11:10,0.851,1.402,0.884,1.607,1.129,0.475,0.846,0.823,�k��,2.8,��
2018/02/03,11:20,0.852,1.403,0.887,1.610,1.131,0.475,0.845,0.825,�k��,2.9,��
2018/02/03,11:30,0.854,1.402,0.886,1.611,1.130,0.476,0.845,0.825,���k��,2.9,��
2018/02/03,11:40,0.851,1.406,0.888,1.612,1.131,0.477,0.846,0.827,���k��,2.6,��
2018/02/03,11:50,0.853,1.408,0.886,1.609,1.130,0.476,0.844,0.824,�k��,2.6,��
2018/02/03,12:00,0.854,1.408,0.888,1.614,1.132,0.476,0.847,0.826,���k��,2.0,��
2018/02/03,12:10,0.854,1.407,0.886,1.609,1.133,0.477,0.847,0.825,�k��,2.3,��
2018/02/03,12:20,0.854,1.408,0.888,1.612,1.133,0.478,0.846,0.825,�k��,2.5,��
2018/02/03,12:30,0.852,1.409,0.887,1.614,1.135,0.477,0.846,0.825,�k��,2.5,��
2018/02/03,12:40,0.856,1.410,0.889,1.613,1.133,0.477,0.846,0.826,���k��,2.6,��
2018/02/03,12:50,0.858,1.411,0.887,1.613,1.136,0.477,0.847,0.825,�k��,2.8,��
2018/02/03,13:00,0.850,1.413,0.889,1.614,1.138,0.476,0.848,0.826,���k��,2.6,��
2018/02/03,13:10,0.847,1.412,0.887,1.614,1.136,0.477,0.847,0.825,���k��,2.3,��
2018/02/03,13:20,0.846,1.410,0.890,1.612,1.135,0.478,0.847,0.827,���k��,3.0,��
2018/02/03,13:30,0.847,1.409,0.890,1.614,1.138,0.478,0.848,0.826,���k��,2.5,��
2018/02/03,13:40,0.847,1.413,0.891,1.614,1.138,0.479,0.847,0.825,���k��,2.6,��
2018/02/03,13:50,0.848,1.413,0.888,1.614,1.135,0.479,0.848,0.826,���k��,2.5,��
2018/02/03,14:00,0.848,1.416,0.891,1.616,1.138,0.478,0.848,0.826,���k��,2.6,��
2018/02/03,14:10,0.850,1.415,0.890,1.616,1.139,0.477,0.849,0.825,�k��,2.3,��
2018/02/03,14:20,0.854,1.417,0.892,1.617,1.138,0.480,0.850,0.827,���k��,1.9,��
2018/02/03,14:30,0.856,1.417,0.890,1.616,1.137,0.478,0.849,0.825,���k��,1.5,��
2018/02/03,14:40,0.857,1.419,0.889,1.617,1.139,0.480,0.851,0.825,�k�k��,1.5,��
2018/02/03,14:50,0.858,1.417,0.891,1.618,1.141,0.478,0.851,0.828,���k��,1.7,��
2018/02/03,15:00,0.859,1.417,0.892,1.617,1.139,0.478,0.851,0.827,�k�k��,1.4,��
2018/02/03,15:10,0.859,1.417,0.891,1.619,1.140,0.479,0.851,0.826,�k��,1.4,��
2018/02/03,15:20,0.858,1.417,0.892,1.620,1.141,0.478,0.849,0.827,��,1.2,��
2018/02/03,15:30,0.859,1.421,0.892,1.621,1.138,0.480,0.852,0.826,��,0.9,��
2018/02/03,15:40,0.858,1.420,0.893,1.621,1.139,0.478,0.852,0.827,��쓌,1.7,��
2018/02/03,15:50,0.860,1.421,0.893,1.622,1.143,0.478,0.851,0.827,��쐼,1.4,��
2018/02/03,16:00,0.858,1.418,0.890,1.621,1.142,0.478,0.851,0.825,���쓌,2.0,��
2018/02/03,16:10,0.857,1.421,0.890,1.624,1.139,0.478,0.850,0.826,��,1.9,��
2018/02/03,16:20,0.856,1.423,0.893,1.620,1.142,0.479,0.851,0.828,��쐼,0.6,��
2018/02/03,16:30,0.857,1.420,0.891,1.622,1.141,0.479,0.851,0.825,��쐼,0.6,��
2018/02/03,16:40,0.858,1.420,0.892,1.623,1.142,0.478,0.852,0.826,��,0.8,��
2018/02/03,16:50,0.857,1.421,0.892,1.621,1.143,0.479,0.848,0.825,��,0.6,��
2018/02/03,17:00,0.858,1.424,0.892,1.625,1.139,0.480,0.852,0.825,��,0.9,��
2018/02/03,17:10,0.858,1.422,0.891,1.622,1.140,0.479,0.851,0.827,�쓌,0.6,��
2018/02/03,17:20,0.857,1.420,0.892,1.623,1.141,0.478,0.851,0.825,-,CALM,��
2018/02/03,17:30,0.857,1.421,0.893,1.623,1.140,0.480,0.850,0.827,�k�k��,0.6,��
2018/02/03,17:40,0.854,1.421,0.890,1.625,1.139,0.480,0.853,0.826,-,CALM,��
2018/02/03,17:50,0.853,1.420,0.891,1.623,1.141,0.479,0.852,0.824,�k��,1.8,��
2018/02/03,18:00,0.856,1.421,0.891,1.623,1.140,0.480,0.852,0.824,�k��,2.9,��
2018/02/03,18:10,0.857,1.425,0.892,1.623,1.143,0.480,0.851,0.824,�k��,3.6,��
2018/02/03,18:20,0.860,1.422,0.893,1.625,1.142,0.478,0.853,0.826,�k��,5.2,��
2018/02/03,18:30,0.856,1.424,0.892,1.624,1.143,0.478,0.850,0.824,���k��,5.9,��
2018/02/03,18:40,0.858,1.422,0.890,1.622,1.142,0.480,0.851,0.824,���k��,6.8,��
2018/02/03,18:50,0.859,1.422,0.892,1.624,1.138,0.481,0.852,0.826,���k��,7.5,��
2018/02/03,19:00,0.857,1.422,0.893,1.624,1.141,0.479,0.851,0.825,�k��,8.2,��
2018/02/03,19:10,0.856,1.422,0.892,1.621,1.140,0.481,0.852,0.826,�k��,6.9,��
2018/02/03,19:20,0.858,1.421,0.893,1.625,1.142,0.479,0.853,0.826,�k��,6.7,��
2018/02/03,19:30,0.858,1.422,0.892,1.625,1.142,0.479,0.853,0.827,�k��,6.4,��
2018/02/03,19:40,0.857,1.423,0.893,1.624,1.140,0.479,0.853,0.826,�k��,3.8,��
2018/02/03,19:50,0.857,1.425,0.892,1.625,1.141,0.479,0.851,0.827,�k�k��,5.0,��
2018/02/03,20:00,0.859,1.423,0.895,1.625,1.142,0.478,0.852,0.827,�k��,4.2,��
2018/02/03,20:10,0.858,1.423,0.893,1.624,1.141,0.477,0.853,0.826,�k��,4.1,��
2018/02/03,20:20,0.857,1.425,0.893,1.626,1.141,0.481,0.852,0.824,�k��,3.8,��
2018/02/03,20:30,0.856,1.424,0.896,1.625,1.142,0.480,0.852,0.826,�k��,4.4,��
2018/02/03,20:40,0.858,1.424,0.894,1.625,1.143,0.479,0.851,0.826,���k��,4.8,��
2018/02/03,20:50,0.856,1.423,0.893,1.624,1.140,0.480,0.851,0.826,�k��,6.0,��
2018/02/03,21:00,0.859,1.423,0.893,1.627,1.141,0.480,0.855,0.827,�k��,5.3,��
2018/02/03,21:10,0.857,1.423,0.893,1.628,1.142,0.479,0.852,0.825,�k�k��,5.3,��
2018/02/03,21:20,0.858,1.426,0.893,1.624,1.143,0.479,0.853,0.826,�k��,6.3,��
2018/02/03,21:30,0.858,1.423,0.894,1.628,1.143,0.481,0.852,0.827,�k��,7.9,��
2018/02/03,21:40,0.857,1.423,0.892,1.627,1.143,0.480,0.854,0.828,�k��,6.7,��
2018/02/03,21:50,0.856,1.423,0.894,1.626,1.143,0.478,0.852,0.827,�k��,7.6,��
2018/02/03,22:00,0.859,1.423,0.894,1.626,1.143,0.480,0.852,0.826,�k��,5.9,��
2018/02/03,22:10,0.858,1.422,0.894,1.625,1.143,0.481,0.854,0.828,�k��,4.9,��
2018/02/03,22:20,0.858,1.426,0.894,1.628,1.144,0.479,0.852,0.827,�k��,6.6,��
2018/02/03,22:30,0.859,1.423,0.894,1.627,1.142,0.480,0.853,0.826,�k��,6.3,��
2018/02/03,22:40,0.859,1.425,0.894,1.629,1.142,0.481,0.853,0.827,���k��,6.7,��
2018/02/03,22:50,0.859,1.423,0.893,1.630,1.141,0.480,0.855,0.826,�k��,7.4,��
2018/02/03,23:00,0.859,1.425,0.893,1.627,1.142,0.480,0.854,0.826,�k��,6.2,��
2018/02/03,23:10,0.859,1.426,0.894,1.629,1.144,0.479,0.853,0.826,�k��,6.7,��
2018/02/03,23:20,0.859,1.427,0.894,1.629,1.142,0.481,0.853,0.826,�k��,7.0,��
2018/02/03,23:30,0.859,1.425,0.896,1.629,1.143,0.480,0.853,0.826,�k�k��,7.4,��
2018/02/03,23:40,0.857,1.425,0.894,1.630,1.144,0.481,0.854,0.826,�k��,7.5,��
2018/02/03,23:50,0.860,1.426,0.895,1.628,1.144,0.480,0.854,0.827,�k��,7.8,��
